[[{"header":{"parameterUnit":"m.s-1","parameterCategory":1,"la1":30.2991,"la2":30.254,"lo1":-89.0895,"lo2":-89.0444,"dy":0.0017,"dx":0.0017,"nx":28,"ny":28,"refTime":"2024-10-02T21:00:00:Z","depth":0,"parameterNumber":2,"parameterNumberName":"U-component_of_WINDS"},"data":[0,0,0,0,0,0,0,0,0,0,0,0,0,0,0,0,0,0,0,0,0,0,0,0,0,0,0,0,0,0,0,0,0,0,0,0,0,0,0,0,0,0,0,0,0,0,0,0,0,0,0,0,0,0,0,0,0,0,0.4192,0.4192,0,0.4219,0.4219,0.422,0.4265,0.4266,0.4266,0.4267,0.4294,0.4293,0.4293,0,0,0,0,0,0,0,0,0,0,0,0,0,0.4176,0.4176,0.4192,0.4192,0.4192,0.4219,0.4219,0.422,0.4265,0.4266,0.4267,0.4268,0.4294,0.4293,0.4293,0,0,0,0,0,0,0,0,0,0,0,0,0,0.4191,0.4176,0.4192,0.4218,0.4221,0.4219,0.4219,0.422,0.4264,0.4266,0.4267,0.4268,0.4294,0.4293,0.4293,0.4268,0,0,0.4293,0.4293,0,0,0,0,0,0,0,0,0.419,0.4191,0.4214,0.4216,0.4219,0.424,0.4224,0.4236,0.4264,0.4248,0.4267,0.4269,0.4275,0.4276,0.4278,0.4269,0.427,0.4293,0.4293,0.4293,0.4293,0,0,0,0,0,0,0,0.4189,0.419,0.4203,0.4214,0.4217,0.4228,0.4231,0.4226,0.4254,0.4249,0.4253,0.4255,0.4276,0.4278,0.4279,0.427,0.4293,0.4293,0.4293,0.4293,0.4239,0.4238,0,0,0,0,0,0,0.4184,0.4189,0.4202,0.4203,0.4207,0.4227,0.4231,0.4232,0.4254,0.4259,0.4254,0.4257,0.4278,0.4279,0.428,0.425,0.4293,0.4293,0.4293,0.424,0.4239,0.4237,0,0,0,0,0,0,0.4184,0.4185,0.4201,0.4197,0.42,0.4226,0.4227,0.4232,0.4234,0.4258,0.4263,0.4251,0.4279,0.4281,0.427,0.4251,0.4293,0.4293,0.4242,0.424,0.4238,0.419,0,0,0,0,0,0,0.4183,0.4184,0.4175,0.4197,0.42,0.419,0.4226,0.4231,0.4234,0.4238,0.4256,0.4261,0.428,0.427,0.427,0.4252,0.4293,0.4244,0.4241,0.4239,0.4193,0.4186,0.418,0,0,0,0,0,0.4182,0.4161,0.4175,0.4176,0.419,0.4189,0.4191,0.4214,0.4232,0.4223,0.4238,0.426,0.4254,0.4269,0.4269,0.4251,0.4245,0.4242,0.4239,0.4196,0.4187,0.418,0,0,0,0,0,0,0.4136,0.4164,0.418,0.4165,0.4174,0.4197,0.4186,0.4205,0.4209,0.4213,0.4241,0.4245,0.423,0.424,0.4256,0.4226,0.4253,0.425,0.422,0.4212,0.4206,0.4203,0.4292,0,0,0,0,0,0.4125,0.4123,0.4147,0.4131,0.4135,0.4159,0.416,0.4177,0.4188,0.4192,0.4207,0.4215,0.4215,0.4215,0.4216,0.4195,0.4199,0.4183,0.4176,0.4171,0.4167,0.4155,0.4147,0.4227,0.4227,0.4227,0,0,0.41,0.4115,0.4112,0.4122,0.4132,0.4128,0.4163,0.4158,0.4154,0.4191,0.4182,0.4193,0.4204,0.4188,0.4181,0.4195,0.4146,0.4167,0.4163,0.4162,0.4151,0.4143,0.4136,0.4225,0.4225,0.4226,0,0,0.4053,0.4065,0.4052,0.4061,0.4074,0.4091,0.4087,0.4107,0.4115,0.4107,0.4133,0.413,0.413,0.4137,0.414,0.4094,0.4114,0.4094,0.4061,0.4048,0.4042,0.4036,0.4017,0.4011,0.4091,0.4091,0.4091,0,0.402,0.4016,0.4043,0.4036,0.4039,0.4072,0.4059,0.4066,0.4079,0.4079,0.4095,0.4095,0.4105,0.409,0.4078,0.4081,0.4077,0.4091,0.4041,0.4035,0.403,0.4013,0.4006,0.4088,0.4088,0.4089,0.4089,0,0.3974,0.3971,0.3959,0.3971,0.3973,0.3962,0.3986,0.3985,0.4002,0.4016,0.4005,0.4019,0.4023,0.4021,0.4038,0.4007,0.4015,0.4036,0.4063,0.402,0.4003,0.3997,0.4084,0.4085,0.4086,0.4087,0,0,0.3898,0.3924,0.3919,0.3924,0.3942,0.3939,0.393,0.3934,0.3931,0.3939,0.393,0.3929,0.3948,0.3951,0.3969,0.3958,0.3918,0.398,0.398,0.3966,0.3883,0.3866,0.3858,0.3933,0.3931,0.3931,0.3881,0,0.3852,0.3838,0.3861,0.3841,0.3837,0.3869,0.3861,0.387,0.3882,0.388,0.3895,0.3892,0.3918,0.392,0.3911,0.3925,0.3902,0.3929,0.3923,0.3922,0.3916,0.385,0.3832,0.3784,0.3875,0.3874,0.3873,0,0.3797,0.3802,0.3781,0.3798,0.3798,0.379,0.3794,0.3793,0.3803,0.3813,0.3817,0.3838,0.3829,0.3856,0.3843,0.3861,0.386,0.3867,0.3865,0.3864,0.3893,0.3844,0.377,0.3762,0.3864,0.3865,0.3866,0,0.374,0.3742,0.3729,0.3733,0.3753,0.3747,0.3755,0.3767,0.3767,0.3771,0.3771,0.3774,0.3775,0.3777,0.3797,0.3816,0.378,0.3811,0.3787,0.3786,0.3776,0.3776,0.3699,0.3779,0.378,0.378,0.378,0,0.3685,0.3671,0.3704,0.3695,0.368,0.3707,0.369,0.3701,0.3711,0.3705,0.3733,0.3727,0.3756,0.3752,0.3768,0.3753,0.3754,0.3761,0.3764,0.3757,0.3755,0.3754,0.3757,0.3778,0.3778,0.3779,0.3779,0,0.3618,0.364,0.3628,0.3648,0.3653,0.364,0.3657,0.365,0.3665,0.3656,0.3656,0.3679,0.3675,0.3697,0.3698,0.3709,0.3684,0.3696,0.3681,0.3683,0.3657,0.3658,0.3575,0.3564,0.3654,0.3653,0.3652,0,0.3581,0.357,0.3589,0.3587,0.3594,0.359,0.3591,0.3617,0.3616,0.3627,0.3617,0.3617,0.3617,0.361,0.3626,0.3627,0.3636,0.3607,0.3636,0.3628,0.3633,0.3632,0.363,0.36,0.3599,0.3598,0.3597,0,0.3511,0.3522,0.3522,0.3525,0.3525,0.3528,0.3534,0.353,0.3559,0.3556,0.3553,0.3553,0.3554,0.3552,0.3555,0.3563,0.3583,0.3588,0.3582,0.3573,0.3563,0.3565,0.3661,0.3589,0.359,0.3591,0.3591,0.3592,0.3456,0.3447,0.3459,0.3457,0.3464,0.3468,0.3462,0.3476,0.3474,0.3476,0.3492,0.3485,0.3495,0.3502,0.3507,0.3502,0.3516,0.3508,0.3505,0.3502,0.3496,0.3566,0.3503,0.3503,0.3503,0.3504,0.3504,0,0.3385,0.3394,0.3392,0.3399,0.3397,0.3419,0.3426,0.3422,0.3416,0.3424,0.3424,0.3419,0.3417,0.3433,0.3433,0.3425,0.3435,0.3424,0.3424,0.3424,0.3485,0.3489,0.3416,0.3416,0.3416,0.3416,0.3416,0.3416,0.3348,0.3333,0.3346,0.3334,0.3344,0.3338,0.3339,0.3343,0.3349,0.3342,0.3341,0.3352,0.3362,0.3363,0.3361,0.3366,0.3363,0.3349,0.3356,0.3412,0.3421,0.3429,0.3432,0.3349,0.3349,0.3296,0.3295,0.3295]},{"header":{"parameterUnit":"m.s-1","parameterCategory":1,"la1":30.2991,"la2":30.254,"lo1":-89.0895,"lo2":-89.0444,"dy":0.0017,"dx":0.0017,"nx":28,"ny":28,"refTime":"2024-10-02T21:00:00:Z","depth":0,"parameterNumber":3,"parameterNumberName":"V-component_of_WINDS"},"data":[0,0,0,0,0,0,0,0,0,0,0,0,0,0,0,0,0,0,0,0,0,0,0,0,0,0,0,0,0,0,0,0,0,0,0,0,0,0,0,0,0,0,0,0,0,0,0,0,0,0,0,0,0,0,0,0,0,0,2.455,2.455,0,2.4537,2.4537,2.4537,2.453,2.453,2.453,2.453,2.4514,2.4514,2.4514,0,0,0,0,0,0,0,0,0,0,0,0,0,2.4568,2.4568,2.4551,2.455,2.455,2.4537,2.4537,2.4537,2.453,2.453,2.453,2.453,2.4515,2.4514,2.4514,0,0,0,0,0,0,0,0,0,0,0,0,0,2.4558,2.4568,2.4551,2.4545,2.4545,2.4537,2.4537,2.4537,2.453,2.453,2.453,2.453,2.4515,2.4514,2.4513,2.451,0,0,2.4512,2.4511,0,0,0,0,0,0,0,0,2.4559,2.4557,2.4546,2.4546,2.4545,2.4535,2.4538,2.4528,2.453,2.4535,2.453,2.453,2.4521,2.452,2.4518,2.4509,2.4509,2.4512,2.4511,2.4511,2.4511,0,0,0,0,0,0,0,2.4559,2.4558,2.4545,2.4546,2.4545,2.4543,2.4541,2.4536,2.4528,2.4535,2.4534,2.4533,2.4521,2.4518,2.4517,2.4508,2.4512,2.4511,2.4511,2.451,2.4496,2.4496,0,0,0,0,0,0,2.4561,2.4559,2.4546,2.4545,2.4552,2.4543,2.4541,2.4538,2.4529,2.4527,2.4533,2.4533,2.4519,2.4518,2.4517,2.4511,2.4511,2.451,2.451,2.4496,2.4496,2.4496,0,0,0,0,0,0,2.4562,2.456,2.4546,2.4552,2.455,2.4542,2.4539,2.4538,2.4535,2.4527,2.4526,2.4532,2.4519,2.4517,2.4512,2.4511,2.451,2.451,2.4496,2.4496,2.4496,2.4501,0,0,0,0,0,0,2.4562,2.456,2.4559,2.4552,2.4549,2.4542,2.4539,2.4538,2.4535,2.4534,2.4525,2.4524,2.4519,2.4513,2.4511,2.451,2.4509,2.4496,2.4496,2.4496,2.4501,2.4501,2.4502,0,0,0,0,0,2.4563,2.4561,2.4559,2.4558,2.4548,2.4542,2.4541,2.4535,2.4535,2.4533,2.4528,2.4524,2.4511,2.4512,2.451,2.4509,2.4496,2.4496,2.4496,2.4501,2.4501,2.4502,0,0,0,0,0,0,2.4569,2.456,2.4558,2.4554,2.4549,2.4541,2.4539,2.4536,2.4531,2.453,2.4523,2.4522,2.4516,2.4512,2.4513,2.4505,2.4503,2.4503,2.4508,2.4508,2.4508,2.4509,2.4509,0,0,0,0,0,2.4569,2.4566,2.4558,2.4555,2.4553,2.4547,2.4544,2.454,2.4534,2.4532,2.4526,2.452,2.4515,2.4511,2.4506,2.45,2.4498,2.4499,2.4499,2.4499,2.4499,2.4495,2.4495,2.4495,2.4495,2.4495,0,0,2.4571,2.4566,2.4564,2.4557,2.4552,2.4548,2.4545,2.4541,2.4537,2.4531,2.4525,2.4521,2.4514,2.4508,2.4505,2.4504,2.4498,2.4499,2.4499,2.4499,2.4495,2.4495,2.4495,2.4495,2.4495,2.4495,0,0,2.4572,2.4568,2.4565,2.4561,2.4554,2.455,2.4549,2.4542,2.4539,2.4533,2.4528,2.4524,2.4514,2.4509,2.4505,2.4504,2.45,2.4502,2.4504,2.45,2.45,2.45,2.4499,2.4499,2.4502,2.4502,2.4502,0,2.4574,2.4569,2.4564,2.456,2.4556,2.4551,2.4548,2.4543,2.4535,2.4533,2.4532,2.452,2.4515,2.4508,2.4507,2.4505,2.4503,2.4503,2.4501,2.4501,2.4501,2.45,2.4499,2.4502,2.4502,2.4502,2.4502,0,2.4572,2.4568,2.4566,2.4559,2.4555,2.4552,2.4545,2.4542,2.4539,2.4534,2.4528,2.4522,2.4515,2.4513,2.4509,2.4505,2.4505,2.4502,2.4501,2.4501,2.45,2.45,2.4503,2.4503,2.4502,2.4502,0,0,2.4576,2.4566,2.4566,2.4562,2.4555,2.4551,2.4547,2.454,2.4538,2.4532,2.4528,2.452,2.4518,2.4513,2.4509,2.4506,2.4505,2.4504,2.4504,2.4504,2.4499,2.4501,2.4501,2.4503,2.4502,2.4502,2.45,0,2.4576,2.4569,2.4564,2.4558,2.4554,2.4549,2.4545,2.454,2.4535,2.453,2.4525,2.452,2.4518,2.4515,2.4512,2.4506,2.4504,2.4506,2.4498,2.4498,2.45,2.45,2.4502,2.45,2.45,2.4499,2.4499,0,2.4574,2.4569,2.4564,2.4556,2.4554,2.4551,2.4545,2.454,2.4534,2.4531,2.4526,2.4521,2.4516,2.4515,2.4507,2.4508,2.4504,2.4501,2.4501,2.45,2.4499,2.4499,2.4499,2.4499,2.4499,2.4499,2.4499,0,2.4578,2.4569,2.4565,2.4562,2.4553,2.4551,2.4547,2.4541,2.4537,2.4531,2.4529,2.4522,2.4518,2.4513,2.4506,2.4506,2.4499,2.4497,2.4495,2.4495,2.4494,2.4494,2.4494,2.4492,2.4492,2.4492,2.4492,0,2.4577,2.4574,2.4566,2.4563,2.4559,2.4553,2.4549,2.4545,2.4539,2.4535,2.4529,2.4525,2.4517,2.4512,2.4507,2.4501,2.4499,2.4496,2.4494,2.4496,2.4497,2.4494,2.4493,2.4492,2.4492,2.4492,2.4492,0,2.458,2.4575,2.457,2.4562,2.456,2.4557,2.455,2.4547,2.4542,2.4537,2.4535,2.4527,2.4521,2.4514,2.4505,2.4501,2.4495,2.4493,2.4498,2.4497,2.4495,2.4496,2.4493,2.4492,2.4491,2.4491,2.4491,0,2.4581,2.4578,2.457,2.4567,2.4564,2.4559,2.4555,2.4549,2.4545,2.4537,2.4535,2.4528,2.4522,2.4512,2.4505,2.4498,2.4496,2.4495,2.4494,2.4496,2.4495,2.4495,2.4495,2.4495,2.4495,2.4495,2.4495,0,2.4582,2.4579,2.4574,2.4569,2.4565,2.456,2.4554,2.4552,2.4545,2.4541,2.4534,2.453,2.4521,2.4514,2.4506,2.4501,2.4497,2.4496,2.4495,2.4497,2.4499,2.4497,2.4498,2.4496,2.4496,2.4496,2.4496,2.4496,2.4583,2.458,2.4574,2.4569,2.4565,2.456,2.4556,2.4551,2.4546,2.4539,2.4535,2.4528,2.4521,2.451,2.4505,2.4499,2.4498,2.4497,2.4497,2.4497,2.4497,2.45,2.4498,2.4498,2.4498,2.4498,2.4498,0,2.4583,2.4579,2.4575,2.4568,2.4563,2.4561,2.4555,2.4551,2.4545,2.4539,2.4534,2.4526,2.4519,2.4512,2.4504,2.4501,2.4499,2.4499,2.4499,2.4498,2.4498,2.45,2.4501,2.4501,2.4501,2.4501,2.4501,2.4501,2.4583,2.4578,2.4575,2.4568,2.4563,2.4557,2.4554,2.4549,2.4545,2.4536,2.4531,2.4526,2.4519,2.4511,2.4504,2.4502,2.45,2.45,2.4498,2.4498,2.4498,2.4498,2.4499,2.45,2.45,2.4498,2.4498,2.4498]}]]